"Pseudo-MPEC" for ZTs0241

Created 2024 Aug 2 23:22:20 UT using Find_Orb

Click here for an explanation of pseudo-MPECs

 
 Astrometry: 
     ZTs0241* C2024 07 28.34735 21 33 48.09 +13 17 42.5    ~7SNM 16.66RUNEOCPI41
     ZTs0241  C2024 07 28.34769 21 33 49.40 +13 16 45.2    ~7SNM 16.66RUNEOCPI41
     ZTs0241  C2024 07 28.35085 21 34 01.85 +13 07 57.1    ~7SNM 17.09RUNEOCPI41
     ZTs0241  C2024 07 28.35120 21 34 03.16 +13 06 59.4    ~7SNM 17.09RUNEOCPI41

Station data:
(I41) Palomar Mountain--ZTF  (N33.357336 W116.859780)  US/California.
   Observers B. T. Bolin, Z. T. F. Collaboration. Measurers B. T. Bolin,
   Z.-Y. Lin, F. J. Masci. 1.2-m f/2.4 Schmidt.

Orbital elements:  ZTs0241
   Perihelion 2024 Sep 18.65717 +/- 41.9 TT = 15:46:19 (JD 2460572.15717)
Epoch 2024 Jul 28.0 TT = JDT 2460519.5   Earth MOID: 0.0025      AutoNEOCP
M 334.31296319 +/- 33               (J2000 ecliptic)
n   0.48781650 +/- 0.38             Peri.  266.88856 +/- 60
a   1.59820219 +/- 0.83             Node   125.75339 +/- 45
e   0.5851795 +/- 0.272             Incl.   44.09062 +/- 16
P   2.020/737.968d         H 26.54  G  0.15   U 12.1  SR
q 0.66296702 +/- 0.194    Q 2.53343736 +/- 28.7
From 4 observations 2024 July 28 (5.5 min); mean residual 0".47
Residuals in arcseconds: 
240728 I41  .08+  .47+    240728 I41  .56+  .62-    
240728 I41  .14-  .46-    240728 I41  .50-  .60+    

Ephemerides (geocentric):
Date (UTC) HH   RA             Dec           delta  r     elong  mag " sig PA
---- --------  ------------   ------------  ------ ------ -----  --- --------
2024 08 02 23  08 53 17.108   -35 10 22.85  .08391 .96621  52.7 26??  54d  90
2024 08 03 00  08 53 18.916   -35 09 29.90  .08458 .96580  52.7 26??  54d  90
2024 08 03 01  08 53 20.695   -35 08 37.64  .08525 .96540  52.6 26??  54d  90
2024 08 03 02  08 53 22.446   -35 07 46.04  .08592 .96499  52.6 26??  54d  90
2024 08 03 03  08 53 24.169   -35 06 55.09  .08659 .96459  52.6 26??  54d  90
2024 08 03 04  08 53 25.865   -35 06 04.78  .08727 .96418  52.6 26??  53d  90
2024 08 03 05  08 53 27.535   -35 05 15.09  .08794 .96378  52.5 26??  53d  90
2024 08 03 06  08 53 29.179   -35 04 26.00  .08861 .96337  52.5 26??  53d  90
2024 08 03 07  08 53 30.798   -35 03 37.50  .08928 .96296  52.5 26??  53d  90
2024 08 03 08  08 53 32.392   -35 02 49.57  .08995 .96256  52.5 26??  53d  90
2024 08 03 09  08 53 33.963   -35 02 02.20  .09062 .96215  52.5 26??  53d  90
2024 08 03 10  08 53 35.510   -35 01 15.38  .09129 .96175  52.4 26??  53d  90
2024 08 03 11  08 53 37.034   -35 00 29.09  .09196 .96134  52.4 26??  53d  90
2024 08 03 12  08 53 38.536   -34 59 43.32  .09264 .96094  52.4 26??  53d  90
2024 08 03 13  08 53 40.015   -34 58 58.06  .09331 .96053  52.4 26??  53d  90
2024 08 03 14  08 53 41.474   -34 58 13.29  .09398 .96013  52.3 26??  53d  90
2024 08 03 15  08 53 42.911   -34 57 29.01  .09465 .95972  52.3 26??  53d  90
2024 08 03 16  08 53 44.328   -34 56 45.20  .09532 .95932  52.3 26??  53d  90
2024 08 03 17  08 53 45.725   -34 56 01.85  .09599 .95891  52.3 26??  53d  90
2024 08 03 18  08 53 47.103   -34 55 18.96  .09666 .95851  52.2 26??  53d  90
2024 08 03 19  08 53 48.461   -34 54 36.50  .09733 .95810  52.2 26??  53d  90
2024 08 03 20  08 53 49.800   -34 53 54.47  .09801 .95770  52.2 26??  53d  90
2024 08 03 21  08 53 51.121   -34 53 12.87  .09868 .95729  52.2 26??  53d  90
2024 08 03 22  08 53 52.424   -34 52 31.67  .09935 .95689  52.2 26??  53d  90
2024 08 03 23  08 53 53.710   -34 51 50.88  .10002 .95648  52.1 26??  53d  90
2024 08 04 00  08 53 54.978   -34 51 10.47  .10069 .95608  52.1 26??  53d  90
2024 08 04 01  08 53 56.229   -34 50 30.45  .10136 .95567  52.1 26??  53d  90
2024 08 04 02  08 53 57.464   -34 49 50.81  .10203 .95527  52.1 26??  53d  90
2024 08 04 03  08 53 58.682   -34 49 11.53  .10270 .95487  52.0 26??  53d  90
2024 08 04 04  08 53 59.884   -34 48 32.60  .10338 .95446  52.0 26??  53d  90
2024 08 04 05  08 54 01.071   -34 47 54.03  .10405 .95406  52.0 26??  53d  90
2024 08 04 06  08 54 02.243   -34 47 15.80  .10472 .95365  52.0 26??  53d  90
2024 08 04 07  08 54 03.400   -34 46 37.90  .10539 .95325  52.0 26??  53d  90
2024 08 04 08  08 54 04.542   -34 46 00.33  .10606 .95284  51.9 26??  53d  90
2024 08 04 09  08 54 05.669   -34 45 23.07  .10673 .95244  51.9 26??  53d  90
2024 08 04 10  08 54 06.783   -34 44 46.13  .10740 .95204  51.9 26??  53d  90
2024 08 04 11  08 54 07.883   -34 44 09.50  .10807 .95163  51.9 26??  53d  90
2024 08 04 12  08 54 08.969   -34 43 33.16  .10875 .95123  51.9 26??  53d  90
2024 08 04 13  08 54 10.042   -34 42 57.11  .10942 .95082  51.8 26??  53d  90
2024 08 04 14  08 54 11.102   -34 42 21.36  .11009 .95042  51.8 26??  53d  90
2024 08 04 15  08 54 12.149   -34 41 45.87  .11076 .95002  51.8 26??  53d  90
2024 08 04 16  08 54 13.184   -34 41 10.67  .11143 .94961  51.8 26??  53d  90
2024 08 04 17  08 54 14.206   -34 40 35.73  .11210 .94921  51.8 26??  53d  90
2024 08 04 18  08 54 15.216   -34 40 01.05  .11277 .94881  51.7 26??  53d  90
2024 08 04 19  08 54 16.214   -34 39 26.63  .11345 .94840  51.7 26??  53d  90
2024 08 04 20  08 54 17.201   -34 38 52.45  .11412 .94800  51.7 26??  53d  90
2024 08 04 21  08 54 18.176   -34 38 18.52  .11479 .94760  51.7 26??  53d  90
2024 08 04 22  08 54 19.141   -34 37 44.83  .11546 .94719  51.7 26??  53d  90